Tracking 28926 objects as of 23-May-2024
HD Live streaming from Space Station
objects crossing your sky now

ONEWEB-0628

Track ONEWEB-0628 now!
10-day predictions
ONEWEB-0628 is classified as:


NORAD ID: 55169
Int'l Code: 2023-004AF
Perigee: 1,220.0 km
Apogee: 1,221.7 km
Inclination: 87.9 °
Period: 109.7 minutes
Semi major axis: 7591 km
RCS: Unknown
Launch date: January 10, 2023
Source: United Kingdom (UK)
Launch site: AIR FORCE WESTERN TEST RANGE (AFWTR)
Your satellite tracking list
Your tracking list is empty




NASA's NSSDC Master Catalog

Two Line Element Set (TLE):
1 55169U 23004AF  24144.50214889  .00000211  00000-0  55184-3 0  9997
2 55169  87.8930 140.8904 0001169  74.1290 285.9967 13.12443314 69040
Source of the keplerian elements: AFSPC